APJ461 RJGG-RJCC

Flight info

Callsign APJ461
Flight time 1h 17m
Altitude 37000
Route KCC KROBE Y13 SIRAO Y139 NAVER
Aircraft A320/M-SDE3FGHIRWY/LB1

Departure

Time 2026-05-08 12:57
Airport Chubu Centrair International Airport (RJGG)

Arrival

Time 2026-05-08 14:14
Airport New Chitose Airport (RJCC)
Time Latitude Longitude Altitude Speed Heading
2026-05-08 12:33 34.86066 136.81284 28 ft 0 kts 79°
2026-05-08 12:48 34.86062 136.81257 1 ft 4 kts 82°
2026-05-08 12:48 34.86060 136.81224 28 ft 4 kts 89°
2026-05-08 12:49 34.86061 136.81192 28 ft 4 kts 107°
2026-05-08 12:49 34.86073 136.81168 28 ft 3 kts 164°
2026-05-08 12:49 34.86080 136.81166 28 ft 0 kts 169°
2026-05-08 12:52 34.86074 136.81167 28 ft 4 kts 169°
2026-05-08 12:52 34.85996 136.80991 28 ft 17 kts 259°
2026-05-08 12:52 34.85943 136.80874 28 ft 16 kts 185°
2026-05-08 12:53 34.85838 136.80894 28 ft 15 kts 168°
2026-05-08 12:53 34.85707 136.80926 28 ft 23 kts 169°
2026-05-08 12:53 34.85557 136.80961 28 ft 21 kts 169°
2026-05-08 12:53 34.85419 136.80994 28 ft 19 kts 169°
2026-05-08 12:54 34.85293 136.81023 28 ft 18 kts 169°
2026-05-08 12:54 34.85180 136.81050 28 ft 16 kts 168°
2026-05-08 12:54 34.85046 136.81086 28 ft 22 kts 168°
2026-05-08 12:54 34.84900 136.81123 28 ft 21 kts 169°
2026-05-08 12:55 34.84765 136.81152 28 ft 19 kts 170°
2026-05-08 12:55 34.84637 136.81184 28 ft 21 kts 168°
2026-05-08 12:55 34.84501 136.81218 28 ft 20 kts 168°
2026-05-08 12:55 34.84371 136.81212 28 ft 17 kts 228°
2026-05-08 12:56 34.84335 136.81076 27 ft 18 kts 258°
2026-05-08 12:56 34.84325 136.80917 24 ft 20 kts 300°
2026-05-08 12:56 34.84475 136.80862 27 ft 37 kts 348°
2026-05-08 12:56 34.84940 136.80750 28 ft 99 kts 349°
2026-05-08 12:57 34.85783 136.80546 48 ft 143 kts 345°
2026-05-08 12:57 34.86773 136.80349 641 ft 146 kts 349°
2026-05-08 12:57 34.87769 136.80117 1331 ft 145 kts 340°
2026-05-08 12:57 34.88718 136.79737 1997 ft 149 kts 337°
2026-05-08 12:58 34.89760 136.79289 2307 ft 170 kts 337°
2026-05-08 12:58 34.90962 136.78778 2624 ft 195 kts 337°
2026-05-08 12:58 34.92325 136.78211 3065 ft 218 kts 337°
2026-05-08 12:58 34.93795 136.77614 3795 ft 226 kts 337°
2026-05-08 12:59 34.95297 136.77014 4581 ft 233 kts 336°
2026-05-08 12:59 34.96880 136.76388 5282 ft 245 kts 335°
2026-05-08 12:59 34.98518 136.75744 6062 ft 252 kts 335°
2026-05-08 12:59 35.00217 136.75080 6815 ft 259 kts 335°
2026-05-08 13:00 35.01949 136.74406 7562 ft 264 kts 335°
2026-05-08 13:00 35.03722 136.73731 8338 ft 272 kts 338°
2026-05-08 13:00 35.05658 136.73488 9082 ft 290 kts 355°
2026-05-08 13:00 35.07689 136.74020 9802 ft 310 kts 15°
2026-05-08 13:01 35.09605 136.75396 10371 ft 331 kts 31°
2026-05-08 13:01 35.11480 136.77142 10596 ft 355 kts 32°
2026-05-08 13:01 35.13486 136.79040 10963 ft 372 kts 33°
2026-05-08 13:01 35.15544 136.81008 11567 ft 379 kts 33°
2026-05-08 13:02 35.17636 136.83014 12203 ft 386 kts 33°
2026-05-08 13:02 35.19764 136.85053 12869 ft 391 kts 33°
2026-05-08 13:02 35.21919 136.87112 13535 ft 396 kts 33°
2026-05-08 13:02 35.24111 136.89199 14103 ft 402 kts 33°
2026-05-08 13:03 35.26367 136.91243 14651 ft 403 kts 26°
2026-05-08 13:03 35.28828 136.92872 15203 ft 403 kts 18°
2026-05-08 13:03 35.31328 136.94353 15768 ft 407 kts 18°
2026-05-08 13:03 35.33886 136.95869 16338 ft 411 kts 18°
2026-05-08 13:04 35.36476 136.97412 16919 ft 416 kts 17°
2026-05-08 13:04 35.39088 136.98971 17478 ft 421 kts 17°
2026-05-08 13:04 35.41738 137.00559 18021 ft 426 kts 17°
2026-05-08 13:04 35.44417 137.02166 18501 ft 430 kts 17°
2026-05-08 13:05 35.47118 137.03790 19025 ft 434 kts 16°
2026-05-08 13:05 35.49843 137.05429 19485 ft 439 kts 16°
2026-05-08 13:05 35.52563 137.07064 19943 ft 442 kts 16°
2026-05-08 13:05 35.55337 137.08731 20394 ft 446 kts 15°
2026-05-08 13:06 35.58135 137.10413 20838 ft 450 kts 16°
2026-05-08 13:06 35.60961 137.12112 21270 ft 454 kts 16°
2026-05-08 13:06 35.63805 137.13824 21719 ft 458 kts 15°
2026-05-08 13:06 35.66682 137.15559 22124 ft 462 kts 15°
2026-05-08 13:07 35.69567 137.17301 22569 ft 463 kts 15°
2026-05-08 13:07 35.72470 137.19058 23018 ft 467 kts 15°
2026-05-08 13:07 35.75407 137.20832 23288 ft 474 kts 15°
2026-05-08 13:07 35.78338 137.22604 23600 ft 476 kts 15°
2026-05-08 13:08 35.81319 137.24411 23790 ft 479 kts 15°
2026-05-08 13:08 35.84321 137.26233 24108 ft 483 kts 15°
2026-05-08 13:08 35.87346 137.28074 24550 ft 487 kts 15°
2026-05-08 13:08 35.90390 137.29927 24903 ft 490 kts 15°
2026-05-08 13:09 35.93455 137.31788 25184 ft 493 kts 15°
2026-05-08 13:09 35.96541 137.33664 25500 ft 496 kts 15°
2026-05-08 13:09 35.96682 137.33750 25518 ft 496 kts 15°
2026-05-08 13:10 35.99694 137.35594 25797 ft 500 kts 15°
2026-05-08 13:10 36.02829 137.37506 26111 ft 502 kts 15°
2026-05-08 13:10 36.05972 137.39417 26450 ft 505 kts 15°
2026-05-08 13:10 36.09135 137.41343 26765 ft 508 kts 15°
2026-05-08 13:11 36.12313 137.43282 27097 ft 512 kts 15°
2026-05-08 13:11 36.15517 137.45239 27402 ft 515 kts 15°
2026-05-08 13:11 36.18739 137.47205 27694 ft 518 kts 15°
2026-05-08 13:11 36.21974 137.49188 28168 ft 521 kts 15°
2026-05-08 13:12 36.25240 137.51193 28409 ft 526 kts 15°
2026-05-08 13:12 36.28479 137.53185 28757 ft 529 kts 16°
2026-05-08 13:12 36.31790 137.55222 29128 ft 532 kts 16°
2026-05-08 13:12 36.35116 137.57265 29462 ft 535 kts 16°
2026-05-08 13:13 36.38463 137.59319 29739 ft 538 kts 16°
2026-05-08 13:13 36.41823 137.61384 29933 ft 541 kts 16°
2026-05-08 13:13 36.45206 137.63468 30202 ft 544 kts 17°
2026-05-08 13:13 36.48593 137.65562 30582 ft 546 kts 16°
2026-05-08 13:14 36.52008 137.67681 30785 ft 550 kts 17°
2026-05-08 13:14 36.55377 137.69820 31047 ft 555 kts 20°
2026-05-08 13:14 36.58685 137.72334 31186 ft 559 kts 24°
2026-05-08 13:14 36.61985 137.74902 31423 ft 560 kts 24°
2026-05-08 13:15 36.65284 137.77474 31576 ft 557 kts 24°
2026-05-08 13:15 36.68566 137.80028 31730 ft 556 kts 24°
2026-05-08 13:15 36.75142 137.85137 32038 ft 558 kts 24°
2026-05-08 13:16 36.78432 137.87698 32255 ft 558 kts 24°
2026-05-08 13:16 36.81726 137.90268 32532 ft 558 kts 25°
2026-05-08 13:16 36.85013 137.92840 32876 ft 558 kts 25°
2026-05-08 13:16 36.88302 137.95413 33246 ft 556 kts 25°
2026-05-08 13:17 36.91539 137.97943 33634 ft 555 kts 24°
2026-05-08 13:17 36.94811 138.00500 33864 ft 556 kts 25°
2026-05-08 13:17 36.98084 138.03066 34143 ft 555 kts 25°
2026-05-08 13:17 37.01355 138.05637 34503 ft 554 kts 25°
2026-05-08 13:18 37.04619 138.08204 34671 ft 555 kts 25°
2026-05-08 13:18 37.07891 138.10776 34934 ft 555 kts 25°
2026-05-08 13:18 37.11155 138.13347 35159 ft 555 kts 25°
2026-05-08 13:18 37.14422 138.15927 35422 ft 554 kts 25°
2026-05-08 13:19 37.17636 138.18473 35684 ft 554 kts 25°
2026-05-08 13:19 37.20893 138.21051 35890 ft 554 kts 24°
2026-05-08 13:19 37.24150 138.23624 36112 ft 553 kts 24°
2026-05-08 13:19 37.27406 138.26195 36347 ft 552 kts 24°
2026-05-08 13:20 37.30655 138.28761 36620 ft 551 kts 24°
2026-05-08 13:20 37.33898 138.31329 36818 ft 551 kts 24°
2026-05-08 13:20 37.40362 138.36472 36862 ft 549 kts 24°
2026-05-08 13:21 37.46764 138.41580 36874 ft 548 kts 24°
2026-05-08 13:21 37.53206 138.46716 36866 ft 548 kts 24°
2026-05-08 13:22 37.59648 138.51863 36896 ft 548 kts 25°
2026-05-08 13:22 37.66038 138.56982 36858 ft 547 kts 25°
2026-05-08 13:23 37.72459 138.62135 36856 ft 547 kts 25°
2026-05-08 13:23 37.78879 138.67303 36845 ft 547 kts 25°
2026-05-08 13:24 37.85307 138.72480 36846 ft 548 kts 25°
2026-05-08 13:24 37.91734 138.77666 36890 ft 547 kts 25°
2026-05-08 13:25 37.98092 138.82815 36859 ft 546 kts 25°
2026-05-08 13:25 38.04490 138.87998 36853 ft 546 kts 25°
2026-05-08 13:26 38.10882 138.93199 36840 ft 546 kts 26°
2026-05-08 13:26 38.17282 138.98421 36882 ft 547 kts 25°
2026-05-08 13:27 38.23639 139.03608 36862 ft 546 kts 26°
2026-05-08 13:27 38.30029 139.08838 36854 ft 546 kts 26°
2026-05-08 13:28 38.36426 139.14078 36844 ft 547 kts 26°
2026-05-08 13:28 38.42821 139.19332 36843 ft 547 kts 26°
2026-05-08 13:29 38.49170 139.24558 36817 ft 546 kts 26°
2026-05-08 13:29 38.55524 139.29791 36792 ft 543 kts 26°
2026-05-08 13:30 38.61877 139.35033 36799 ft 544 kts 27°
2026-05-08 13:30 38.68240 139.40303 36771 ft 545 kts 27°
2026-05-08 13:31 38.74615 139.45593 36804 ft 547 kts 27°
2026-05-08 13:31 38.80932 139.50854 36788 ft 543 kts 27°
2026-05-08 13:32 38.86192 139.55245 36779 ft 542 kts 27°
2026-05-08 13:32 38.93591 139.61428 36783 ft 543 kts 27°
2026-05-08 13:33 38.98855 139.65829 36775 ft 544 kts 28°
2026-05-08 13:33 39.06497 139.71164 36830 ft 533 kts 15°
2026-05-08 13:34 39.12229 139.74229 36823 ft 533 kts 15°
2026-05-08 13:34 39.20180 139.78502 36813 ft 533 kts 15°
2026-05-08 13:35 39.25864 139.81573 36803 ft 533 kts 15°
2026-05-08 13:35 39.32694 139.85275 36849 ft 532 kts 15°
2026-05-08 13:36 39.40589 139.89563 36753 ft 528 kts 16°
2026-05-08 13:36 39.47370 139.93242 36751 ft 529 kts 16°
2026-05-08 13:37 39.53018 139.96306 36723 ft 530 kts 17°
2026-05-08 13:37 39.59818 140.00013 36732 ft 531 kts 17°
2026-05-08 13:38 39.66634 140.03741 36738 ft 532 kts 17°
2026-05-08 13:38 39.73401 140.07488 36734 ft 533 kts 18°
2026-05-08 13:39 39.80146 140.11591 36738 ft 537 kts 20°
2026-05-08 13:39 39.86851 140.15879 36781 ft 537 kts 21°
2026-05-08 13:40 39.94670 140.20808 36767 ft 537 kts 20°
2026-05-08 13:40 40.00325 140.24295 36760 ft 537 kts 20°
2026-05-08 13:41 40.07032 140.28427 36746 ft 537 kts 20°
2026-05-08 13:41 40.13786 140.32625 36759 ft 537 kts 21°
2026-05-08 13:42 40.20510 140.36840 36740 ft 536 kts 21°
2026-05-08 13:42 40.27232 140.41064 36707 ft 536 kts 20°
2026-05-08 13:43 40.33902 140.45246 36705 ft 535 kts 20°
2026-05-08 13:43 40.40629 140.49467 36754 ft 536 kts 21°
2026-05-08 13:44 40.47329 140.53686 36696 ft 533 kts 21°
2026-05-08 13:44 40.54030 140.57930 36684 ft 535 kts 21°
2026-05-08 13:45 40.60691 140.62154 36684 ft 536 kts 21°
2026-05-08 13:45 40.67419 140.66416 36657 ft 537 kts 21°
2026-05-08 13:46 40.74165 140.70637 36701 ft 535 kts 17°
2026-05-08 13:46 40.81106 140.74067 36696 ft 532 kts 14°
2026-05-08 13:47 40.88054 140.77462 36681 ft 533 kts 15°
2026-05-08 13:47 40.94963 140.80848 36719 ft 533 kts 15°
2026-05-08 13:48 41.01916 140.84292 36699 ft 533 kts 16°
2026-05-08 13:48 41.08856 140.87739 36686 ft 533 kts 16°
2026-05-08 13:49 41.15793 140.91197 36679 ft 532 kts 16°
2026-05-08 13:49 41.22693 140.94635 36134 ft 537 kts 16°
2026-05-08 13:50 41.26237 140.96399 35019 ft 549 kts 17°
2026-05-08 13:50 41.29824 140.98189 34285 ft 551 kts 17°
2026-05-08 13:50 41.33398 140.99979 33773 ft 547 kts 17°
2026-05-08 13:50 41.36962 141.01751 33146 ft 545 kts 17°
2026-05-08 13:51 41.40500 141.03492 32611 ft 540 kts 16°
2026-05-08 13:51 41.44015 141.05216 32064 ft 536 kts 16°
2026-05-08 13:51 41.47495 141.06920 31519 ft 532 kts 17°
2026-05-08 13:51 41.50959 141.08618 31021 ft 528 kts 17°
2026-05-08 13:52 41.54347 141.10289 30486 ft 525 kts 17°
2026-05-08 13:52 41.57751 141.11974 30067 ft 519 kts 17°
2026-05-08 13:52 41.61141 141.13657 29474 ft 517 kts 17°
2026-05-08 13:52 41.64496 141.15322 28887 ft 513 kts 18°
2026-05-08 13:53 41.67822 141.16973 28428 ft 507 kts 18°
2026-05-08 13:53 41.71110 141.18613 27948 ft 501 kts 19°
2026-05-08 13:53 41.74358 141.20248 27487 ft 496 kts 19°
2026-05-08 13:53 41.77567 141.21874 26996 ft 492 kts 20°
2026-05-08 13:54 41.80711 141.23473 26548 ft 487 kts 21°
2026-05-08 13:54 41.83863 141.25080 26067 ft 482 kts 21°
2026-05-08 13:54 41.86985 141.26673 25596 ft 478 kts 21°
2026-05-08 13:54 41.90082 141.28252 25105 ft 475 kts 21°
2026-05-08 13:55 41.93159 141.29821 24602 ft 471 kts 23°
2026-05-08 13:55 41.96077 141.31734 24197 ft 462 kts 35°
2026-05-08 13:55 42.00929 141.37078 23322 ft 443 kts 50°
2026-05-08 13:56 42.03139 141.39918 22930 ft 436 kts 49°
2026-05-08 13:56 42.05296 141.42684 22438 ft 432 kts 49°
2026-05-08 13:56 42.07471 141.45479 21860 ft 433 kts 49°
2026-05-08 13:56 42.09660 141.48299 21196 ft 436 kts 49°
2026-05-08 13:57 42.11853 141.51096 20747 ft 434 kts 45°
2026-05-08 13:57 42.14300 141.53503 20279 ft 437 kts 32°
2026-05-08 13:57 42.16954 141.55476 19817 ft 435 kts 30°
2026-05-08 13:57 42.19594 141.57427 19413 ft 431 kts 29°
2026-05-08 13:58 42.22213 141.59376 19007 ft 429 kts 29°
2026-05-08 13:58 42.24830 141.61329 18556 ft 427 kts 28°
2026-05-08 13:58 42.27397 141.63245 18076 ft 428 kts 28°
2026-05-08 13:58 42.29983 141.65179 17609 ft 426 kts 28°
2026-05-08 13:59 42.32553 141.67103 17341 ft 418 kts 27°
2026-05-08 13:59 42.35089 141.69000 16936 ft 414 kts 27°
2026-05-08 13:59 42.37586 141.70869 16637 ft 407 kts 27°
2026-05-08 13:59 42.40043 141.72710 16289 ft 401 kts 27°
2026-05-08 14:00 42.42463 141.74523 15709 ft 394 kts 27°
2026-05-08 14:00 42.44840 141.76307 15049 ft 387 kts 27°
2026-05-08 14:00 42.47163 141.78055 14482 ft 378 kts 27°
2026-05-08 14:00 42.49409 141.79744 14029 ft 370 kts 28°
2026-05-08 14:01 42.51631 141.81418 13815 ft 363 kts 27°
2026-05-08 14:01 42.53839 141.83077 13430 ft 362 kts 27°
2026-05-08 14:01 42.56041 141.84730 13010 ft 361 kts 25°
2026-05-08 14:01 42.58343 141.85987 12705 ft 352 kts 10°
2026-05-08 14:02 42.60704 141.86496 12512 ft 336 kts 356°
2026-05-08 14:02 42.63003 141.86389 12221 ft 328 kts 349°
2026-05-08 14:02 42.65276 141.86167 11862 ft 327 kts 349°
2026-05-08 14:02 42.67543 141.85944 11508 ft 326 kts 352°
2026-05-08 14:03 42.69770 141.85728 11141 ft 325 kts 352°
2026-05-08 14:03 42.72022 141.85513 10771 ft 324 kts 352°
2026-05-08 14:03 42.74265 141.85297 10389 ft 323 kts 352°
2026-05-08 14:03 42.76492 141.85084 10134 ft 318 kts 353°
2026-05-08 14:04 42.78676 141.84876 9863 ft 311 kts 353°
2026-05-08 14:04 42.80827 141.84670 9262 ft 308 kts 353°
2026-05-08 14:04 42.82900 141.84312 8863 ft 294 kts 343°
2026-05-08 14:04 42.84851 141.83689 8481 ft 282 kts 343°
2026-05-08 14:05 42.86710 141.83101 8130 ft 276 kts 343°
2026-05-08 14:05 42.88583 141.82511 7768 ft 276 kts 344°
2026-05-08 14:05 42.90447 141.81924 7363 ft 274 kts 344°
2026-05-08 14:05 42.92306 141.81335 6994 ft 274 kts 344°
2026-05-08 14:06 42.94166 141.80746 6617 ft 274 kts 344°
2026-05-08 14:06 42.96025 141.80157 6224 ft 275 kts 344°
2026-05-08 14:06 42.97889 141.79566 5835 ft 275 kts 345°
2026-05-08 14:06 42.99701 141.78861 5429 ft 273 kts 335°
2026-05-08 14:07 43.01350 141.77624 4993 ft 270 kts 320°
2026-05-08 14:07 43.02760 141.75989 4751 ft 258 kts 307°
2026-05-08 14:07 43.03572 141.73958 4674 ft 235 kts 278°
2026-05-08 14:07 43.03717 141.71827 4639 ft 216 kts 260°
2026-05-08 14:08 43.03427 141.69909 4630 ft 199 kts 244°
2026-05-08 14:08 43.02807 141.68271 4618 ft 192 kts 230°
2026-05-08 14:08 43.01922 141.66945 4535 ft 188 kts 216°
2026-05-08 14:08 43.00852 141.66003 4395 ft 185 kts 201°
2026-05-08 14:09 42.99613 141.65456 4200 ft 184 kts 188°
2026-05-08 14:09 42.98359 141.65367 3979 ft 183 kts 174°
2026-05-08 14:09 42.97097 141.65583 3741 ft 183 kts 172°
2026-05-08 14:09 42.95830 141.65808 3495 ft 184 kts 172°
2026-05-08 14:10 42.94574 141.66030 3280 ft 179 kts 172°
2026-05-08 14:10 42.93368 141.66244 3023 ft 171 kts 172°
2026-05-08 14:10 42.92215 141.66448 2803 ft 161 kts 172°
2026-05-08 14:10 42.91151 141.66636 2581 ft 148 kts 172°
2026-05-08 14:11 42.90174 141.66809 2396 ft 140 kts 172°
2026-05-08 14:11 42.89221 141.66977 2209 ft 137 kts 172°
2026-05-08 14:11 42.88283 141.67143 2042 ft 135 kts 171°
2026-05-08 14:11 42.87354 141.67308 1859 ft 134 kts 172°
2026-05-08 14:12 42.86431 141.67471 1676 ft 134 kts 172°
2026-05-08 14:12 42.85508 141.67634 1485 ft 134 kts 172°
2026-05-08 14:12 42.84581 141.67798 1305 ft 134 kts 171°
2026-05-08 14:12 42.83661 141.67960 1114 ft 133 kts 172°
2026-05-08 14:13 42.82751 141.68120 909 ft 136 kts 173°
2026-05-08 14:13 42.81815 141.68286 719 ft 134 kts 173°
2026-05-08 14:13 42.80897 141.68448 539 ft 133 kts 173°
2026-05-08 14:13 42.79981 141.68605 367 ft 132 kts 174°
2026-05-08 14:14 42.79070 141.68755 185 ft 132 kts 172°
2026-05-08 14:14 42.78185 141.68917 65 ft 115 kts 173°
2026-05-08 14:14 42.77667 141.69020 65 ft 51 kts 173°
2026-05-08 14:14 42.77483 141.68977 60 ft 15 kts 246°
2026-05-08 14:15 42.77491 141.68874 68 ft 13 kts 279°
2026-05-08 14:15 42.77600 141.68808 64 ft 25 kts
2026-05-08 14:15 42.77816 141.68759 66 ft 35 kts 352°
2026-05-08 14:15 42.78024 141.68725 65 ft 28 kts 353°
2026-05-08 14:16 42.78200 141.68696 63 ft 24 kts 353°
2026-05-08 14:16 42.78346 141.68664 65 ft 18 kts 329°
2026-05-08 14:16 42.78406 141.68561 61 ft 11 kts 296°
2026-05-08 14:16 42.78427 141.68476 68 ft 12 kts 291°
2026-05-08 14:17 42.78472 141.68384 61 ft 9 kts 307°
2026-05-08 14:17 42.78517 141.68315 67 ft 8 kts 307°
2026-05-08 14:17 42.78540 141.68269 61 ft 4 kts 304°
2026-05-08 14:17 42.78550 141.68249 61 ft 3 kts 304°
2026-05-08 14:18 42.78561 141.68229 68 ft 1 kts 306°
2026-05-08 14:18 42.78571 141.68210 63 ft 2 kts 305°
2026-05-08 14:18 42.78574 141.68203 66 ft 0 kts 304°